| time (UTC) | temp C | wind direction | speed KPH | gust KPH | rain 1hr cm | rain 24hr cm | rain mn cm | humidity % | barometer mb |
| 20260505062703 | 15 | 270 | 0.0 | 1.6 | 0.00 | 0.00 | 0.00 | 75 | 1008.5 |
| 20260505061727 | 15 | 270 | 3.2 | 4.8 | 0.00 | 0.00 | 0.00 | 76 | 1008.8 |
| 20260505060619 | 15 | 270 | 0.0 | 1.6 | 0.00 | 0.00 | 0.00 | 78 | 1008.7 |
| 20260505055727 | 15 | 270 | 3.2 | 4.8 | 0.00 | 0.00 | 0.00 | 79 | 1008.7 |
| 20260505054707 | 14 | 270 | 4.8 | 6.4 | 0.00 | 0.00 | 0.00 | 80 | 1008.8 |
| 20260505053727 | 14 | 270 | 0.0 | 1.6 | 0.00 | 0.00 | 0.00 | 80 | 1009.0 |
| 20260505052703 | 14 | 0.0 | 0.0 | 0.00 | 0.00 | 0.00 | 80 | 1008.9 | |
| 20260505051727 | 13 | 0.0 | 1.6 | 0.00 | 0.00 | 0.00 | 80 | 1008.7 | |
| 20260505050703 | 13 | 270 | 1.6 | 3.2 | 0.00 | 0.00 | 0.00 | 80 | 1008.9 |
| 20260505041727 | 13 | 270 | 3.2 | 4.8 | 0.00 | 0.00 | 0.00 | 79 | 1009.1 |
| 20260505040703 | 13 | 270 | 0.0 | 1.6 | 0.00 | 0.00 | 0.00 | 78 | 1009.5 |
| 20260505035827 | 13 | 270 | 4.8 | 4.8 | 0.00 | 0.00 | 0.00 | 78 | 1009.4 |
| 20260505034803 | 13 | 270 | 1.6 | 3.2 | 0.00 | 0.00 | 0.00 | 77 | 1008.9 |
| 20260505033727 | 13 | 0.0 | 0.0 | 0.00 | 0.00 | 0.00 | 76 | 1009.0 | |
| 20260505032703 | 13 | 270 | 1.6 | 3.2 | 0.00 | 0.00 | 0.00 | 77 | 1009.0 |
| 20260505031747 | 13 | 270 | 1.6 | 3.2 | 0.00 | 0.00 | 0.00 | 76 | 1009.2 |
| 20260505030703 | 13 | 0.0 | 0.0 | 0.00 | 0.00 | 0.00 | 76 | 1009.2 | |
| 20260505025727 | 13 | 270 | 1.6 | 3.2 | 0.00 | 0.00 | 0.00 | 76 | 1009.3 |
| 20260505024703 | 13 | 0.0 | 0.0 | 0.00 | 0.00 | 0.00 | 75 | 1009.5 | |
| 20260505023847 | 14 | 0.0 | 0.0 | 0.00 | 0.00 | 0.00 | 75 | 1009.4 | |
| 20260505022703 | 14 | 0.0 | 0.0 | 0.00 | 0.00 | 0.00 | 75 | 1009.4 | |
| 20260505021747 | 14 | 270 | 3.2 | 4.8 | 0.00 | 0.00 | 0.00 | 76 | 1009.6 |
| 20260505020703 | 14 | 0.0 | 0.0 | 0.00 | 0.00 | 0.00 | 76 | 1009.8 | |
| 20260505015747 | 14 | 270 | 1.6 | 3.2 | 0.00 | 0.00 | 0.00 | 76 | 1009.7 |
| 20260505014703 | 14 | 270 | 4.8 | 4.8 | 0.00 | 0.00 | 0.00 | 76 | 1009.8 |
| 20260505013727 | 14 | 270 | 0.0 | 1.6 | 0.00 | 0.00 | 0.00 | 77 | 1009.8 |
| 20260505012703 | 13 | 270 | 0.0 | 1.6 | 0.00 | 0.00 | 0.00 | 78 | 1009.8 |
| 20260505011727 | 13 | 270 | 0.0 | 1.6 | 0.00 | 0.00 | 0.00 | 78 | 1009.4 |
| 20260505010619 | 13 | 0.0 | 0.0 | 0.00 | 0.00 | 0.00 | 78 | 1009.4 | |
| 20260505005727 | 13 | 0.0 | 0.0 | 0.00 | 0.00 | 0.00 | 78 | 1009.6 | |
| 20260505004703 | 13 | 0.0 | 0.0 | 0.00 | 0.00 | 0.00 | 78 | 1009.7 | |
| 20260505003727 | 13 | 0.0 | 0.0 | 0.00 | 0.00 | 0.00 | 78 | 1009.9 | |
| 20260505002703 | 13 | 0.0 | 0.0 | 0.00 | 0.00 | 0.00 | 79 | 1010.0 | |
| 20260505001727 | 13 | 270 | 1.6 | 3.2 | 0.00 | 0.00 | 0.00 | 78 | 1010.1 |
| 20260505000723 | 13 | 0.0 | 0.0 | 0.00 | 0.00 | 0.00 | 78 | 1010.2 | |
| 20260504235727 | 13 | 0.0 | 0.0 | 0.00 | 0.00 | 0.00 | 78 | 1010.1 | |
| 20260504234803 | 13 | 0.0 | 0.0 | 0.00 | 0.00 | 0.00 | 78 | 1009.9 | |
| 20260504233807 | 13 | 0.0 | 0.0 | 0.00 | 0.00 | 0.00 | 76 | 1010.4 | |
| 20260504232740 | 13 | 0.0 | 0.0 | 0.00 | 0.00 | 0.00 | 76 | 1010.2 | |
| 20260504231727 | 13 | 0.0 | 0.0 | 0.00 | 0.00 | 0.00 | 75 | 1010.2 | |
| 20260504230743 | 13 | 0.0 | 0.0 | 0.00 | 0.00 | 0.00 | 74 | 1010.2 | |
| 20260504225747 | 13 | 0.0 | 0.0 | 0.00 | 0.00 | 0.00 | 75 | 1010.5 | |
| 20260504224703 | 13 | 0.0 | 0.0 | 0.00 | 0.00 | 0.00 | 75 | 1010.4 | |
| 20260504223747 | 13 | 0.0 | 0.0 | 0.00 | 0.00 | 0.00 | 74 | 1010.6 | |
| 20260504222703 | 13 | 0.0 | 0.0 | 0.00 | 0.00 | 0.00 | 74 | 1010.5 | |
| 20260504221727 | 13 | 270 | 1.6 | 3.2 | 0.00 | 0.00 | 0.00 | 74 | 1010.5 |
| 20260504220719 | 13 | 270 | 0.0 | 1.6 | 0.00 | 0.00 | 0.00 | 73 | 1010.4 |
| 20260504215727 | 14 | 270 | 0.0 | 1.6 | 0.00 | 0.00 | 0.00 | 72 | 1010.6 |
| 20260504214703 | 14 | 0.0 | 0.0 | 0.00 | 0.00 | 0.00 | 72 | 1010.4 | |
| 20260504213727 | 14 | 0.0 | 0.0 | 0.00 | 0.00 | 0.00 | 72 | 1010.8 | |
| 20260504212739 | 15 | 0.0 | 0.0 | 0.00 | 0.00 | 0.00 | 72 | 1010.6 | |
| 20260504211747 | 15 | 0.0 | 1.6 | 0.00 | 0.00 | 0.00 | 72 | 1010.8 | |
| 20260504210723 | 15 | 270 | 0.0 | 1.6 | 0.00 | 0.00 | 0.00 | 73 | 1010.9 |
| 20260504205727 | 15 | 0.0 | 0.0 | 0.00 | 0.00 | 0.00 | 72 | 1010.5 | |
| 20260504204803 | 15 | 0.0 | 0.0 | 0.00 | 0.00 | 0.00 | 72 | 1010.5 | |
| 20260504203727 | 15 | 270 | 0.0 | 1.6 | 0.00 | 0.00 | 0.00 | 72 | 1010.8 |
| 20260504202824 | 15 | 270 | 0.0 | 1.6 | 0.00 | 0.00 | 0.00 | 71 | 1010.7 |
| 20260504201807 | 15 | 0.0 | 0.0 | 0.00 | 0.00 | 0.00 | 70 | 1010.7 | |
| 20260504200619 | 15 | 0.0 | 0.0 | 0.00 | 0.00 | 0.00 | 70 | 1010.4 | |
| 20260504195747 | 16 | 0.0 | 0.0 | 0.00 | 0.00 | 0.00 | 69 | 1010.5 | |
| 20260504194619 | 16 | 0.0 | 0.0 | 0.00 | 0.00 | 0.00 | 68 | 1010.5 | |
| 20260504193747 | 16 | 0.0 | 0.0 | 0.00 | 0.00 | 0.00 | 67 | 1010.2 | |
| 20260504192804 | 17 | 0.0 | 0.0 | 0.00 | 0.00 | 0.00 | 66 | 1010.3 | |
| 20260504191808 | 17 | 0.0 | 0.0 | 0.00 | 0.00 | 0.00 | 61 | 1010.5 | |
| 20260504190703 | 17 | 0.0 | 0.0 | 0.00 | 0.00 | 0.00 | 60 | 1010.4 | |
| 20260504185727 | 18 | 0.0 | 0.0 | 0.00 | 0.00 | 0.00 | 59 | 1010.3 | |
| 20260504184703 | 18 | 270 | 0.0 | 1.6 | 0.00 | 0.00 | 0.00 | 57 | 1010.2 |
| 20260504182619 | 20 | 0.0 | 0.0 | 0.00 | 0.00 | 0.00 | 54 | 1010.1 | |
| 20260504181727 | 20 | 270 | 1.6 | 3.2 | 0.00 | 0.00 | 0.00 | 52 | 1010.0 |
| 20260504180723 | 21 | 270 | 1.6 | 3.2 | 0.00 | 0.00 | 0.00 | 51 | 1010.1 |
| 20260504175727 | 21 | 270 | 1.6 | 3.2 | 0.00 | 0.00 | 0.00 | 50 | 1010.1 |
| 20260504174743 | 22 | 270 | 3.2 | 4.8 | 0.00 | 0.00 | 0.00 | 44 | 1010.1 |
| 20260504173748 | 22 | 270 | 4.8 | 4.8 | 0.00 | 0.00 | 0.00 | 43 | 1010.2 |
| 20260504172703 | 23 | 270 | 1.6 | 4.8 | 0.00 | 0.00 | 0.00 | 43 | 1009.9 |
| 20260504171748 | 23 | 270 | 4.8 | 6.4 | 0.00 | 0.00 | 0.00 | 42 | 1010.1 |
| 20260504170703 | 25 | 270 | 0.0 | 3.2 | 0.00 | 0.00 | 0.00 | 40 | 1010.1 |
| 20260504150703 | 24 | 270 | 6.4 | 9.7 | 0.00 | 0.00 | 0.00 | 42 | 1010.2 |
| 20260504140743 | 23 | 270 | 4.8 | 8.0 | 0.00 | 0.00 | 0.00 | 43 | 1010.5 |
| 20260504130723 | 22 | 270 | 3.2 | 4.8 | 0.00 | 0.00 | 0.00 | 46 | 1011.0 |
| 20260504081909 | 20 | 225 | 4.8 | 8.0 | 0.00 | 0.00 | 0.00 | 56 | 1011.9 |
| 20260504080704 | 20 | 247 | 4.8 | 9.7 | 0.00 | 0.00 | 0.00 | 56 | 1011.5 |